User: anonymous   Login
Location: Unspecified
(0.0000°N, 0.0000°E)
Time: 09:13:57
(UTC+00:00)
Language:

P83-1 Hilat - Orbit

View from above orbital plane
View from above orbital plane
View from above satellite
View from above satellite

Ground track
Ground track

The orbit data is extracted from the following two-line orbital elements,

1 14154U 83063A   18109.93545052 +.00000105 +00000-0 +30420-4 0  9996
2 14154 082.0274 044.2905 0039471 301.5558 128.0974 14.36342055819557
Epoch (UTC): 19 April 2018 22:27:02
Eccentricity: 0.0039471
inclination: 82.0274°
perigee height: 742 km
apogee height: 799 km
right ascension of ascending node: 44.2905°
argument of perigee: 301.5558°
revolutions per day: 14.36342055
mean anomaly at epoch: 128.0974°
orbit number at epoch: 81955

The dashed part of the orbit path shows where the satellite is in the earth's shadow,  

DLR